Temp
16 16 16 16 15 13 12 12 13 13 13 12 12 12 11 11 11 11 12 11 11 11 11 11 11 11 10 10 10 10 10 10 10 9 9 9 9 9 9 9 9 9 9 9 9 9 9 9 9
16 16 16 16 15 14 12 13 13 13 12 11 11 12 12 12 12 12 12 12 11 11 11 11 11 10 10 10 10 10 10 9 9 9 9 9 9 9 9 9 9 8 8 8 9 9 9 9 9
15 16 16 16 15 14 13 13 13 13 13 13 13 12 12 12 12 11 11 11 11 10 10 10 10 10 10 10 10 10 10 10 9 9 9 9 10 9 9 9 9 9 9 8 8 8 8 9 8
15 15 15 15 15 14 14 14 14 13 13 13 13 13 12 12 11 10 10 10 11 11 10 10 10 10 9 9 9 9 9 9 9 9 9 9 9 9 9 9 9 9 8 9 9 8 8 8 8
15 15 15 15 15 14 15 15 14 13 13 13 13 13 13 12 12 10 10 10 10 10 10 10 10 10 10 10 9 9 9 9 9 9 9 9 9 9 9 9 9 9 8 8 8 9 8 8 8
15 15 15 15 15 15 15 15 15 14 14 13 13 13 13 13 12 10 10 10 10 10 10 10 10 10 9 9 9 9 9 9 9 9 9 9 9 9 9 9 9 9 8 8 8 8 8 8 8
15 15 15 15 14 15 14 14 15 14 14 14 13 13 13 13 12 11 10 9 9 9 10 10 10 9 9 9 9 9 9 9 9 9 9 9 9 9 9 9 9 9 9 9 8 8 8 8 8
15 15 15 14 15 15 15 15 14 14 14 14 14 13 13 13 13 12 11 10 9 10 10 10 10 9 9 9 9 9 9 9 9 9 9 9 9 9 9 9 9 9 9 9 8 8 8 8 8
15 15 14 15 15 16 16 15 14 14 14 14 14 13 13 13 13 12 11 11 10 10 10 9 9 9 9 9 9 9 9 9 9 8 8 8 8 9 9 9 9 8 8 8 8 8 8 8 8
15 15 15 15 15 16 16 15 15 15 15 14 14 13 13 13 13 13 12 12 11 10 9 9 9 9 9 9 9 9 9 9 8 8 8 8 8 8 8 8 8 8 8 8 8 8 8 8 8
15 15 15 15 16 16 16 16 16 15 15 15 14 14 13 13 13 12 10 10 10 9 9 9 9 9 9 9 9 9 9 8 8 8 8 8 8 8 8 8 8 9 8 8 8 9 8 8 8
15 15 15 15 15 16 16 16 16 16 16 15 14 14 13 13 12 11 11 11 10 10 10 10 9 9 8 9 9 9 8 8 8 8 7 8 8 7 7 8 8 8 8 8 8 8 8 8 8
15 15 15 15 15 16 16 16 16 16 16 15 15 14 14 13 12 12 12 12 11 10 10 9 9 9 9 9 9 9 9 8 8 8 8 7 7 7 7 7 7 8 8 8 8 8 8 8 8
15 15 15 16 16 16 16 16 16 16 16 15 15 14 14 13 12 12 12 11 11 10 10 9 9 9 9 9 9 9 9 9 9 8 8 8 7 7 7 7 7 7 7 8 8 8 8 8 8
15 15 15 15 15 15 15 16 16 16 16 15 15 14 14 13 12 12 11 11 10 10 10 9 9 9 9 9 9 9 9 9 9 8 8 8 8 8 7 7 7 7 7 7 8 8 8 8 8
15 15 15 15 15 16 15 15 16 16 16 16 15 14 14 13 13 12 11 11 10 10 10 9 9 9 9 9 8 8 8 8 8 8 8 8 8 8 8 7 7 7 7 8 8 7 8 8 8
14 15 15 15 15 15 16 16 16 16 15 16 15 14 13 13 13 12 11 10 10 10 9 9 9 9 9 9 8 8 8 8 8 8 8 7 7 7 8 8 7 7 7 8 7 7 7 8 7
14 14 15 15 15 16 16 16 16 16 16 15 15 14 13 13 12 12 11 10 10 10 10 9 9 9 9 9 9 9 8 8 8 8 8 7 7 7 7 7 7 7 7 7 8 8 7 8 7
14 14 14 15 15 15 16 16 16 16 16 15 15 14 12 12 12 11 11 11 10 10 10 9 9 10 9 9 9 9 9 9 8 8 7 7 7 7 7 7 7 6 7 7 7 8 8 7 7
14 14 14 15 15 15 16 16 16 16 16 16 16 14 12 12 12 12 12 12 10 10 10 9 9 8 9 9 9 10 9 9 9 8 8 8 7 7 7 7 7 7 7 7 7 7 8 8 7
13 14 14 14 14 15 15 16 16 16 16 16 15 14 13 12 12 11 11 12 11 10 10 10 9 9 9 9 10 9 9 9 8 8 7 7 6 7 7 6 6 6 6 7 6 7 7 7 7
13 13 14 14 15 15 15 16 16 16 16 16 15 15 14 13 12 11 11 11 11 10 10 9 8 8 9 10 10 10 9 9 8 7 7 7 7 7 7 7 6 6 6 6 6 6 6 6 7
13 14 14 15 15 15 15 15 16 16 16 16 15 15 15 13 12 12 12 12 11 10 10 10 10 10 9 10 9 9 9 9 8 8 8 7 7 7 7 7 7 7 6 6 6 6 6 6 7
13 14 14 15 14 15 15 14 16 16 16 16 16 15 15 14 13 12 12 12 11 10 10 10 10 10 10 9 9 9 9 9 8 8 8 7 7 7 7 7 7 6 6 6 6 6 6 6 6
13 13 15 15 15 16 14 13 16 16 16 16 15 15 15 14 13 12 12 11 11 10 10 10 10 10 9 9 9 9 9 9 8 8 8 8 7 7 7 7 7 7 6 6 6 6 6 7 6
14 14 15 14 15 15 14 14 16 16 16 15 15 15 15 14 13 12 11 11 11 10 10 9 10 9 9 9 9 9 9 9 8 8 8 8 7 7 7 7 7 7 7 6 6 6 6 7 7
13 13 15 14 13 14 14 15 15 16 16 15 15 15 14 13 13 11 11 11 11 10 10 9 9 9 9 9 9 9 9 8 8 8 8 8 8 7 7 7 7 7 6 6 6 6 6 7 7
13 14 14 14 14 14 14 14 15 16 16 16 16 15 13 13 13 12 11 11 10 10 9 9 9 9 9 9 9 8 8 8 8 8 8 8 8 7 6 7 7 7 7 6 6 6 6 7 6
13 14 14 14 14 16 16 16 16 16 16 15 15 14 13 13 12 13 11 10 10 10 9 9 9 8 8 9 8 8 8 8 8 8 8 8 8 7 7 7 7 7 7 6 7 7 6 6 6
13 13 14 14 13 13 13 16 16 16 16 16 15 14 13 12 12 12 11 10 11 10 9 8 8 8 8 8 8 8 8 8 8 8 8 8 8 7 7 7 7 7 7 6 6 6 6 6 6
Height
3180 3180 3180 3180 3184 3183 3181 3184 3183 3183 3183 3182 3182 3182 3182 3181 3182 3185 3183 3184 3187 3190 3191 3193 3195 3197 3197 3198 3199 3201 3203 3204 3205 3206 3207 3208 3209 3210 3209 3211 3211 3213 3214 3214 3214 3216 3216 3217 3217
3181 3181 3182 3182 3184 3183 3184 3184 3184 3183 3182 3182 3183 3182 3182 3181 3180 3180 3182 3183 3186 3189 3191 3193 3195 3196 3198 3199 3201 3202 3204 3206 3207 3208 3209 3209 3210 3210 3211 3212 3213 3213 3214 3214 3215 3216 3216 3217 3217
3182 3183 3184 3183 3184 3185 3187 3186 3185 3184 3185 3185 3184 3184 3183 3182 3181 3181 3183 3185 3186 3188 3191 3194 3195 3197 3199 3201 3202 3204 3205 3207 3208 3209 3210 3211 3212 3212 3212 3212 3213 3214 3214 3214 3215 3216 3216 3217 3218
3184 3186 3186 3186 3187 3187 3186 3186 3185 3185 3185 3186 3185 3185 3184 3183 3181 3182 3183 3184 3187 3189 3192 3194 3196 3197 3199 3202 3204 3205 3207 3208 3209 3210 3211 3212 3213 3213 3213 3214 3214 3214 3215 3215 3215 3216 3217 3217 3218
3186 3187 3187 3188 3188 3188 3187 3187 3186 3187 3187 3187 3187 3186 3185 3183 3182 3183 3184 3186 3188 3190 3192 3194 3196 3199 3201 3203 3204 3206 3207 3208 3210 3211 3212 3213 3213 3213 3214 3214 3214 3215 3214 3215 3215 3216 3216 3217 3218
3188 3189 3190 3191 3190 3190 3190 3189 3189 3189 3189 3189 3188 3186 3185 3184 3182 3183 3184 3187 3189 3191 3193 3196 3197 3199 3201 3203 3204 3206 3207 3209 3210 3211 3212 3213 3213 3214 3214 3214 3214 3215 3214 3215 3216 3215 3216 3217 3218
3188 3190 3192 3192 3192 3192 3192 3192 3191 3191 3190 3190 3189 3188 3188 3186 3186 3185 3186 3187 3188 3190 3192 3194 3196 3198 3201 3203 3204 3206 3208 3210 3211 3212 3213 3213 3213 3214 3213 3214 3214 3215 3215 3215 3216 3217 3216 3217 3217
3188 3192 3193 3194 3194 3194 3194 3192 3192 3193 3192 3191 3190 3189 3189 3188 3187 3186 3186 3186 3188 3189 3191 3193 3195 3199 3201 3202 3204 3206 3207 3209 3210 3211 3212 3213 3213 3213 3213 3214 3214 3215 3216 3214 3217 3215 3216 3217 3218
3191 3194 3194 3195 3195 3195 3193 3193 3192 3193 3193 3191 3190 3190 3189 3188 3187 3185 3186 3187 3187 3189 3190 3192 3195 3198 3200 3202 3203 3205 3207 3208 3209 3210 3211 3212 3212 3213 3213 3213 3214 3214 3216 3215 3215 3216 3215 3216 3217
3193 3194 3195 3195 3195 3194 3194 3193 3192 3193 3192 3191 3190 3190 3190 3188 3187 3186 3186 3187 3188 3190 3192 3194 3195 3197 3198 3200 3201 3203 3205 3206 3207 3208 3210 3211 3212 3212 3213 3213 3214 3214 3215 3215 3215 3215 3215 3215 3216
3193 3194 3194 3195 3194 3194 3194 3194 3192 3191 3191 3190 3190 3189 3190 3190 3189 3188 3188 3189 3190 3190 3192 3193 3195 3196 3197 3198 3199 3201 3202 3202 3204 3205 3207 3209 3210 3210 3211 3213 3213 3212 3212 3213 3214 3214 3215 3215 3215
3193 3193 3193 3194 3194 3194 3194 3194 3193 3191 3191 3189 3188 3188 3190 3192 3190 3189 3189 3190 3190 3191 3192 3192 3193 3194 3194 3196 3197 3198 3200 3200 3202 3204 3203 3204 3205 3205 3207 3209 3210 3212 3211 3212 3213 3212 3213 3214 3214
3191 3192 3192 3193 3193 3194 3193 3192 3192 3191 3190 3189 3188 3189 3191 3191 3189 3188 3189 3190 3190 3191 3192 3192 3192 3192 3193 3193 3195 3196 3197 3199 3200 3199 3201 3201 3193 3195 3201 3205 3207 3208 3209 3209 3209 3210 3209 3211 3212
3190 3191 3192 3193 3192 3192 3191 3190 3190 3190 3188 3188 3188 3189 3190 3190 3189 3188 3189 3190 3191 3192 3192 3192 3192 3192 3192 3193 3194 3194 3195 3196 3196 3199 3198 3197 3195 3188 3196 3201 3202 3204 3205 3207 3207 3206 3207 3208 3210
3189 3191 3192 3192 3192 3191 3188 3186 3186 3187 3186 3187 3187 3187 3188 3189 3188 3188 3189 3191 3190 3191 3192 3192 3192 3193 3192 3192 3193 3193 3192 3193 3194 3195 3196 3196 3196 3196 3197 3198 3198 3199 3201 3201 3203 3205 3204 3205 3206
3189 3190 3191 3191 3191 3190 3188 3186 3184 3184 3185 3186 3185 3186 3186 3187 3187 3189 3189 3190 3190 3190 3191 3191 3192 3192 3191 3192 3192 3193 3193 3193 3193 3193 3193 3193 3193 3193 3193 3194 3194 3195 3196 3196 3198 3199 3200 3201 3202
3187 3188 3189 3190 3190 3189 3187 3185 3184 3183 3184 3185 3184 3184 3184 3186 3187 3187 3187 3187 3188 3188 3190 3191 3191 3191 3191 3191 3191 3192 3193 3192 3191 3191 3191 3190 3190 3189 3189 3189 3189 3190 3191 3191 3192 3194 3196 3197 3198
3186 3185 3187 3189 3190 3187 3185 3184 3182 3183 3182 3182 3182 3182 3183 3184 3185 3185 3184 3185 3185 3186 3187 3188 3190 3190 3190 3190 3189 3189 3190 3189 3188 3187 3187 3186 3185 3185 3184 3184 3185 3185 3185 3186 3187 3188 3190 3192 3194
3184 3184 3186 3188 3188 3186 3184 3183 3182 3181 3180 3179 3179 3179 3181 3180 3182 3181 3179 3178 3180 3181 3183 3184 3187 3188 3188 3189 3187 3188 3188 3186 3185 3183 3181 3180 3178 3178 3178 3179 3179 3179 3180 3181 3181 3182 3183 3186 3189
3183 3184 3186 3186 3185 3186 3183 3182 3181 3180 3179 3177 3176 3176 3178 3178 3179 3177 3175 3174 3175 3179 3180 3178 3179 3181 3185 3186 3186 3185 3184 3183 3181 3178 3175 3173 3171 3171 3171 3171 3173 3172 3173 3174 3175 3177 3178 3181 3184
3183 3183 3184 3185 3184 3184 3183 3182 3180 3179 3177 3175 3173 3173 3172 3175 3176 3175 3174 3173 3174 3176 3177 3175 3175 3178 3182 3184 3183 3182 3180 3179 3175 3172 3168 3165 3163 3162 3162 3162 3163 3166 3164 3168 3169 3171 3173 3176 3179
3181 3182 3182 3183 3183 3183 3182 3181 3178 3176 3174 3172 3171 3170 3171 3172 3174 3174 3173 3173 3173 3174 3173 3172 3173 3177 3180 3181 3181 3180 3178 3174 3170 3167 3163 3159 3157 3157 3156 3155 3156 3157 3159 3158 3160 3164 3167 3170 3173
3180 3180 3181 3181 3181 3181 3180 3180 3176 3174 3172 3171 3169 3169 3170 3170 3171 3172 3173 3174 3173 3172 3175 3173 3173 3176 3180 3180 3180 3178 3175 3171 3167 3164 3160 3157 3155 3153 3151 3149 3149 3150 3151 3151 3151 3154 3156 3165 3168
3178 3179 3179 3179 3179 3179 3177 3178 3174 3172 3171 3170 3168 3168 3168 3168 3169 3171 3173 3173 3173 3173 3173 3174 3175 3177 3178 3178 3177 3176 3173 3170 3167 3163 3159 3154 3152 3149 3146 3144 3144 3144 3146 3146 3148 3150 3155 3161 3163
3176 3177 3179 3179 3178 3175 3174 3176 3172 3170 3169 3168 3167 3167 3166 3167 3167 3169 3171 3171 3171 3172 3172 3173 3175 3176 3177 3177 3175 3174 3172 3169 3166 3162 3158 3154 3150 3147 3144 3141 3140 3140 3140 3141 3143 3148 3151 3155 3158
3171 3174 3175 3175 3174 3174 3173 3172 3169 3168 3167 3165 3165 3164 3165 3166 3167 3167 3169 3170 3170 3171 3171 3171 3173 3174 3175 3174 3173 3172 3170 3168 3165 3161 3158 3155 3150 3146 3143 3141 3140 3140 3138 3139 3142 3144 3148 3150 3153
3168 3169 3172 3172 3173 3174 3171 3169 3167 3166 3165 3163 3163 3163 3164 3165 3165 3165 3166 3168 3168 3169 3169 3170 3172 3173 3172 3171 3172 3170 3170 3168 3165 3161 3158 3154 3149 3145 3142 3141 3139 3138 3138 3139 3141 3143 3146 3147 3149
3166 3168 3170 3170 3171 3170 3167 3166 3165 3164 3164 3163 3162 3162 3162 3162 3163 3163 3164 3165 3166 3166 3167 3167 3170 3170 3170 3170 3170 3170 3170 3168 3164 3161 3158 3155 3150 3146 3143 3141 3139 3138 3138 3139 3140 3141 3142 3144 3145
3164 3164 3166 3167 3167 3163 3164 3164 3163 3163 3162 3161 3161 3161 3160 3160 3160 3160 3162 3163 3165 3165 3165 3166 3167 3168 3168 3169 3169 3170 3169 3166 3163 3161 3158 3155 3151 3147 3145 3142 3139 3137 3137 3138 3138 3139 3140 3141 3142
3161 3162 3163 3163 3164 3163 3163 3162 3161 3161 3160 3159 3159 3159 3158 3158 3159 3159 3160 3162 3162 3164 3164 3165 3166 3166 3167 3168 3170 3169 3167 3165 3162 3159 3157 3154 3151 3148 3145 3143 3141 3138 3137 3137 3137 3138 3138 3140 3141
Wind_Speed
10 7 7 11 14 17 13 13 17 12 10 8 4 8 4 4 2 1 3 17 14 10 11 12 11 11 11 9 7 6 5 4 3 3 4 5 7 7 7 6 7 7 7 7 6 6 4 2 3
9 8 4 10 16 16 12 14 12 15 15 8 6 8 6 5 2 2 11 14 14 11 11 12 12 12 10 8 7 6 5 3 3 3 3 4 6 6 6 6 5 5 6 7 6 6 4 2 2
8 6 4 9 15 14 9 9 11 12 10 10 8 7 6 6 7 8 8 9 14 15 14 13 12 13 11 8 7 7 5 3 3 2 3 3 3 6 6 5 5 3 4 7 6 5 3 2 3
8 5 6 9 13 13 8 8 7 11 10 9 9 5 8 7 9 5 5 10 14 16 14 13 12 13 11 9 7 6 6 4 2 1 1 2 1 2 3 3 4 3 3 5 6 5 3 4 4
9 5 5 9 14 13 10 8 5 4 7 5 8 6 6 7 7 8 7 11 13 15 12 12 12 11 9 8 6 5 4 4 3 2 2 1 2 2 2 3 3 3 3 5 6 5 4 4 5
5 3 8 13 17 12 9 9 7 4 6 4 7 7 7 6 7 8 11 13 14 12 10 10 12 11 10 8 6 4 3 3 2 2 1 1 1 2 3 3 4 4 3 3 3 5 3 4 6
1 12 12 13 15 13 8 4 7 7 7 7 6 7 7 6 5 7 10 13 14 14 12 11 13 12 10 8 6 4 2 1 1 1 1 2 1 2 3 4 5 4 5 4 4 5 4 3 7
15 16 11 13 14 12 12 8 6 8 9 8 5 4 6 5 4 7 10 10 14 15 15 14 13 12 11 9 7 5 4 4 4 3 2 2 2 3 4 6 7 7 6 6 5 4 4 3 5
19 16 13 11 10 8 9 7 7 7 8 7 7 2 3 4 4 7 7 6 10 13 16 15 13 13 12 11 10 9 7 6 7 5 5 4 4 5 5 6 7 8 8 8 7 6 6 5 5
14 10 9 7 9 10 4 4 7 8 7 5 6 4 1 1 2 4 7 7 7 10 12 13 13 13 13 13 13 12 11 9 10 8 8 8 8 7 8 6 5 7 9 9 8 9 8 7 7
10 7 5 5 8 9 7 6 6 5 2 3 3 4 4 1 8 5 9 10 10 10 9 11 12 13 14 14 15 15 15 13 14 13 12 12 11 10 10 10 6 3 6 9 10 12 10 9 8
7 4 2 4 8 8 7 6 7 7 4 5 4 5 5 1 6 4 6 7 6 8 8 8 9 11 13 15 16 16 15 15 15 15 16 16 17 16 14 15 15 9 7 8 11 13 13 11 10
9 7 4 4 6 8 10 7 8 8 8 7 7 6 2 4 7 5 2 3 5 7 6 6 5 6 8 11 13 14 15 15 17 17 18 20 24 22 15 17 19 19 15 11 12 14 14 14 13
12 9 8 7 8 12 15 13 11 10 9 7 7 6 6 2 5 4 2 3 5 4 5 3 3 3 3 6 9 12 14 15 17 16 17 17 18 16 12 19 21 22 21 19 15 16 17 16 16
17 14 9 11 12 7 12 14 12 10 9 8 7 7 9 0 2 1 4 4 5 4 3 1 1 2 0 1 4 7 9 12 14 14 16 18 19 21 19 21 23 23 23 23 22 20 19 19 17
15 14 10 4 5 10 11 7 8 9 9 6 5 9 10 8 6 3 6 6 5 4 3 1 1 2 2 2 4 6 7 8 10 13 15 16 16 18 22 24 23 23 24 27 27 25 22 22 20
14 10 10 5 4 11 9 7 5 8 4 7 4 9 12 14 11 11 6 8 8 7 4 2 4 6 5 4 4 6 7 9 13 15 17 19 19 21 21 22 24 25 27 26 24 27 25 23 22
11 14 13 6 8 9 7 8 4 4 5 7 4 8 13 16 11 15 15 13 14 10 4 6 13 14 12 9 8 9 11 12 15 18 20 22 24 25 25 25 26 25 24 24 24 25 28 26 25
9 10 7 4 4 9 8 9 7 4 5 6 6 7 13 17 12 15 18 15 20 18 12 12 22 27 20 14 13 11 12 16 19 22 24 26 26 27 27 28 28 29 28 25 24 25 26 28 27
12 9 5 7 7 8 7 6 5 3 5 6 8 11 15 15 13 14 16 9 16 17 21 24 22 27 21 16 12 11 16 19 23 25 29 31 31 29 29 29 31 31 30 29 26 25 26 29 28
8 8 4 6 9 7 3 1 5 6 10 11 12 12 13 16 14 15 13 9 15 16 18 21 8 15 15 13 11 13 15 20 23 24 25 27 27 27 26 27 30 31 30 31 29 27 26 28 29
6 4 2 6 5 3 3 4 6 6 6 5 8 8 8 10 12 14 12 10 14 14 19 16 15 15 13 10 10 13 16 19 20 20 19 19 17 18 20 22 24 27 29 29 32 33 28 28 31
6 5 3 6 6 6 6 4 6 6 5 7 4 5 8 9 10 10 10 6 10 13 10 10 15 16 13 8 9 12 14 17 18 16 16 15 14 13 13 15 18 23 27 28 27 35 26 24 29
11 6 6 6 5 6 9 6 7 10 9 7 5 5 9 9 10 10 7 5 6 13 14 10 14 14 10 6 7 9 12 15 15 17 16 16 16 15 13 11 13 16 20 25 23 20 26 25 25
13 7 3 3 4 5 7 4 5 7 9 9 4 7 10 8 9 7 6 5 5 11 13 14 13 11 6 5 5 8 11 14 16 18 19 18 18 14 12 10 9 13 16 21 22 20 24 27 24
20 15 7 3 3 1 6 5 7 9 10 8 6 8 9 9 6 9 8 4 4 9 10 11 11 7 6 3 5 7 11 13 16 18 19 18 17 14 11 9 7 6 3 5 7 10 15 21 22
13 15 12 8 5 4 5 10 13 8 5 2 3 8 7 9 6 10 8 6 5 5 7 10 8 6 5 3 4 7 11 13 15 17 19 18 18 15 10 8 5 4 6 7 8 11 14 19 22
8 10 4 7 4 5 3 7 6 6 2 1 8 5 9 8 6 8 11 8 8 6 6 6 7 5 5 5 4 8 11 13 14 15 18 19 18 15 13 9 6 3 4 6 7 9 13 16 20
12 12 7 5 5 4 3 4 4 8 7 10 11 3 11 16 6 9 12 11 10 3 3 2 5 6 6 7 5 9 11 12 12 14 16 17 16 15 12 10 6 3 2 4 5 7 8 10 12
7 9 10 6 5 7 5 11 11 13 10 6 9 8 12 19 10 12 17 12 7 6 5 5 5 4 9 11 10 10 10 11 12 13 15 15 14 14 12 9 8 6 3 2 2 5 6 10 11
Wind_Direction
82 64 86 47 64 61 68 68 62 60 67 77 82 5 352 319 298 239 196 159 146 148 138 135 127 124 120 114 111 110 111 118 121 130 128 133 145 148 134 141 148 159 169 177 179 169 159 153 146
69 79 81 52 63 59 57 56 35 37 48 70 24 41 39 19 11 180 164 163 155 157 152 145 136 131 128 124 117 119 123 138 154 161 148 153 154 148 145 144 139 153 166 168 181 184 174 167 173
110 95 69 51 58 60 60 41 33 27 32 33 59 55 38 54 80 115 158 165 164 155 159 153 145 142 140 134 129 126 127 135 161 183 200 174 169 166 159 147 137 153 163 167 178 189 188 190 180
147 101 86 65 53 55 46 11 15 16 21 22 45 43 49 64 91 127 156 169 164 155 157 159 156 151 144 138 131 124 123 123 123 170 211 242 211 180 179 167 158 173 181 184 170 178 171 173 186
155 128 79 75 53 67 67 54 31 4 19 37 65 64 58 82 112 136 142 156 162 157 162 167 165 156 144 136 132 133 124 108 114 123 128 191 264 273 215 206 207 194 210 196 174 186 183 181 174
94 123 106 83 64 81 82 62 54 36 31 64 68 62 54 63 105 145 164 159 162 164 168 173 176 169 167 158 151 149 143 130 121 93 72 77 222 233 251 219 211 209 214 223 183 167 179 183 185
161 131 107 75 56 58 49 37 35 22 25 29 63 70 62 60 82 143 176 180 179 174 176 180 187 184 181 174 169 173 179 187 168 157 3 360 326 275 241 238 232 218 222 226 209 198 192 181 196
134 138 116 74 56 48 33 18 335 3 8 1 11 51 62 67 98 128 163 171 190 198 190 185 191 194 194 191 196 195 211 221 233 239 242 273 284 278 240 228 232 229 222 225 229 223 205 215 217
125 116 99 73 51 32 25 18 351 341 322 349 335 2 79 74 92 119 155 162 176 189 192 189 197 199 206 209 218 223 229 239 248 251 264 268 262 262 260 237 237 251 240 231 236 230 226 208 235
132 114 90 75 27 30 51 17 339 342 339 333 315 299 252 67 80 115 148 157 168 178 187 195 202 207 213 221 230 240 243 247 256 257 263 262 256 247 250 242 246 244 252 246 244 240 233 224 228
145 133 105 64 23 32 39 30 18 354 359 291 295 282 250 286 30 173 148 148 159 173 185 201 215 221 226 232 236 239 244 243 246 251 256 251 247 246 243 236 235 255 251 249 243 249 247 232 221
184 199 175 30 16 9 15 4 360 0 336 294 253 248 243 86 27 179 163 155 152 159 179 189 208 225 228 234 239 241 246 250 252 254 256 253 252 226 230 235 241 255 257 250 249 247 250 243 234
226 224 259 333 339 333 323 334 334 345 341 288 251 251 227 181 8 38 130 187 174 163 175 190 199 219 222 234 240 243 248 255 259 261 262 263 264 216 214 238 245 249 255 258 258 253 251 249 241
232 240 252 276 302 309 306 303 295 319 314 316 270 238 185 66 349 83 150 175 168 161 186 199 221 223 220 225 240 253 254 255 261 263 268 268 279 282 234 242 247 251 254 251 252 257 254 248 244
242 254 270 291 312 343 320 298 282 289 304 333 280 235 220 13 310 199 183 178 165 173 182 182 354 326 236 275 268 260 259 262 265 267 269 275 271 264 256 253 254 256 254 252 262 254 252 248 243
250 263 276 260 338 347 350 355 269 279 297 335 316 259 250 239 336 4 234 199 191 188 230 158 312 334 320 321 310 299 295 292 286 283 284 284 275 271 264 259 255 255 254 264 258 255 251 248 243
258 257 267 294 308 342 352 8 307 289 293 354 323 266 265 245 290 336 276 231 218 201 202 260 282 275 271 255 277 294 292 296 291 286 284 282 275 272 269 263 256 257 261 263 257 247 248 247 242
240 259 259 265 337 10 9 17 7 342 279 304 288 266 259 245 289 321 317 237 227 212 234 284 289 292 284 284 286 293 296 294 290 289 287 282 278 274 271 266 262 257 258 263 257 251 244 242 239
215 231 234 243 334 348 5 352 2 354 307 278 284 266 247 244 282 306 312 274 228 222 248 282 272 269 274 276 286 293 294 293 294 292 285 279 273 272 271 267 262 260 257 256 258 247 244 235 235
231 238 236 287 293 334 350 321 323 279 292 296 291 267 238 251 268 285 301 284 232 246 262 282 280 252 248 267 282 287 300 299 299 295 290 285 279 270 264 260 261 256 253 251 253 247 241 233 232
235 234 288 325 314 313 333 354 348 329 306 286 277 269 240 240 260 280 285 273 240 253 291 303 241 218 245 261 276 301 304 306 305 305 298 290 279 272 270 261 256 249 250 246 246 244 239 235 230
206 171 297 326 325 280 297 290 315 318 328 297 279 275 238 221 241 274 266 271 254 261 275 276 218 233 233 260 298 308 312 324 322 316 316 310 292 274 268 262 258 252 248 252 237 235 232 231 229
193 224 300 307 289 294 277 257 276 293 316 353 310 234 202 210 224 249 254 278 237 228 246 268 246 222 239 259 293 309 330 342 347 340 339 335 310 296 281 262 255 254 255 253 255 225 217 230 228
222 257 295 271 253 260 257 234 266 260 273 323 326 261 215 218 221 233 243 239 211 212 203 212 190 205 226 246 302 331 339 348 351 354 357 357 344 331 313 288 263 257 256 255 252 231 220 233 231
225 236 256 210 202 249 233 238 256 279 286 287 288 226 232 225 235 226 232 237 233 197 194 199 208 208 234 255 327 337 339 344 352 358 2 359 350 344 339 320 288 273 262 257 248 231 227 231 234
234 225 215 240 213 1 221 242 264 296 309 288 256 251 251 226 234 274 236 221 211 193 206 191 202 219 248 266 327 336 339 346 349 356 357 359 358 349 351 342 326 275 217 213 233 223 225 225 233
215 198 218 223 241 253 244 265 282 292 310 296 254 265 268 211 283 272 230 224 205 193 195 188 206 221 243 276 313 340 336 344 346 353 356 356 2 3 348 351 340 298 254 243 247 252 251 239 235
205 202 204 208 189 227 231 271 290 303 324 265 321 304 221 197 332 308 233 223 195 168 169 193 221 247 251 262 308 333 334 338 345 351 354 354 1 6 9 352 340 330 280 264 260 249 260 252 240
228 225 217 204 215 240 234 240 332 343 303 281 298 276 227 225 309 312 232 226 207 168 142 229 240 261 238 246 290 315 327 337 347 350 349 351 356 4 7 12 13 12 278 240 254 260 248 245 238
236 243 217 227 221 224 247 258 275 315 307 295 282 255 237 227 290 289 230 219 223 270 293 254 230 266 254 242 266 305 326 340 349 349 345 347 352 360 3 24 25 23 27 52 270 254 233 226 225